Theta_e
315 317 317 318 319 319 318 319 319 317 316 316 318 318 320 319 318 319 317 318 321 320 321 322 321 321 321 320 322 326 343 346 345 338 340 341 342 337 337 326 323 323 323 324
316 317 318 317 316 317 317 316 317 317 315 317 318 319 319 319 317 319 321 322 323 323 322 321 323 320 319 320 320 323 332 342 346 344 341 341 345 344 339 329 324 324 325 324
318 317 316 316 315 316 316 317 318 318 316 316 317 319 320 317 320 322 322 322 324 324 325 323 321 324 323 319 320 321 323 331 340 346 342 340 342 342 339 332 328 331 330 329
317 317 316 317 317 317 318 317 318 318 318 320 317 320 321 320 319 323 323 323 325 326 326 328 326 325 324 324 321 322 322 325 335 342 344 340 340 345 347 342 336 341 338 339
318 317 316 317 318 317 318 318 318 318 320 319 318 320 321 319 320 324 324 324 326 327 328 331 334 335 331 328 324 322 326 326 332 335 343 344 341 343 343 339 337 342 341 342
317 315 315 317 314 316 316 318 318 316 319 321 320 320 320 326 325 325 326 327 327 328 330 332 335 338 338 338 330 328 331 337 339 340 341 343 344 342 343 341 340 341 342 344
316 313 313 312 315 315 319 320 321 320 320 320 318 319 327 325 323 323 325 325 325 326 327 329 332 336 339 341 344 341 341 345 345 345 344 343 343 342 340 340 341 342 342 343
318 316 312 311 312 314 315 321 321 321 320 320 320 323 328 322 322 322 323 323 324 324 325 326 328 331 333 337 340 344 346 347 347 346 346 345 344 343 342 341 341 342 342 341
316 312 311 311 310 311 313 316 312 319 319 321 322 327 325 323 322 320 319 321 321 321 323 324 325 326 328 331 333 337 340 342 344 346 347 346 346 345 343 343 342 342 342 341
311 313 311 311 309 311 311 311 317 317 319 320 322 326 328 322 320 318 316 316 315 317 320 323 322 322 324 325 326 326 326 329 333 337 340 342 344 345 344 344 344 342 337 334
316 316 314 316 313 313 315 314 312 316 318 318 319 321 325 320 318 318 317 316 315 316 317 318 318 318 322 323 322 321 320 319 318 319 322 326 332 336 341 340 340 336 335 332
314 316 316 315 309 309 310 312 314 316 316 318 318 318 313 312 312 312 312 312 312 313 315 317 314 315 317 319 321 320 320 320 318 316 317 318 328 331 333 336 340 338 334 331
310 310 311 311 308 308 310 310 310 310 311 315 317 318 310 311 312 312 312 312 312 312 312 312 313 314 314 315 317 320 323 320 316 314 316 317 317 321 331 334 335 337 333 331
308 310 311 312 311 308 309 309 308 309 310 311 310 311 310 311 312 312 312 311 311 310 310 310 311 312 314 314 313 316 316 321 319 317 316 315 318 317 321 329 333 333 336 336
309 310 308 307 307 309 309 309 308 309 309 309 308 308 308 311 311 309 310 309 310 310 309 308 309 309 310 314 312 312 313 312 312 314 316 316 317 317 317 321 329 334 333 333
308 311 309 309 309 309 309 309 308 308 308 308 307 308 310 310 309 309 309 309 308 309 308 307 307 307 308 309 311 313 313 310 309 309 314 318 318 316 316 318 320 329 332 333
310 311 310 310 308 308 307 307 308 307 308 308 308 309 310 310 310 309 309 308 308 308 307 306 306 306 306 307 308 310 310 310 311 312 313 315 314 312 311 313 313 318 322 328
309 310 309 309 308 306 306 309 308 309 309 311 311 311 310 309 308 308 308 307 308 306 306 306 305 305 305 306 308 308 309 310 311 312 319 314 312 310 308 309 311 312 314 317
307 309 309 309 308 307 307 308 310 310 309 310 310 310 309 308 307 308 306 306 305 304 305 305 304 304 305 305 306 308 309 309 310 313 318 317 312 311 308 309 310 311 312 313
305 307 308 307 309 310 308 309 308 308 311 309 309 309 308 307 308 308 305 304 304 304 304 304 304 304 304 304 304 305 308 309 309 310 313 314 312 311 308 307 308 310 313 315
307 307 310 309 310 309 308 309 308 310 311 309 309 308 306 306 305 305 304 305 305 305 304 304 304 305 304 304 304 305 305 308 309 309 309 310 310 309 308 309 309 308 310 314
310 311 310 309 309 310 309 309 310 309 308 308 307 305 305 305 305 305 305 305 305 305 305 304 304 304 304 305 305 305 305 305 307 309 309 308 309 310 308 308 309 308 309 314
312 310 312 311 311 308 309 309 308 307 307 307 305 305 306 306 306 305 305 305 304 304 304 304 304 304 305 306 306 305 305 304 305 307 308 308 308 312 310 310 309 308 309 314
307 306 310 310 308 307 307 307 307 306 306 306 305 305 306 306 306 305 305 305 304 304 305 304 304 305 305 306 306 306 305 305 306 306 308 308 308 309 311 311 309 307 307 313
305 305 307 307 306 306 306 305 306 306 306 305 305 306 306 305 305 305 305 304 304 304 304 304 305 306 306 306 306 306 306 305 306 307 307 308 308 310 312 312 310 308 307 312
303 305 307 308 305 306 307 307 307 307 307 307 306 306 306 304 304 305 304 304 304 305 305 305 306 306 307 307 306 306 305 306 307 308 308 310 309 308 310 310 311 308 308 314
Wind_Speed
6 6 10 13 10 6 4 5 8 5 5 3 4 8 9 10 11 7 3 6 6 5 8 9 13 18 23 26 27 29 32 35 38 40 37 35 35 33 32 35 36 34 31 29
5 12 13 8 8 6 5 4 7 7 4 7 3 9 9 7 5 8 8 9 11 9 7 8 10 11 18 22 25 28 31 34 35 42 41 39 37 38 36 35 37 35 32 30
13 3 7 10 8 8 7 8 6 7 1 5 5 4 2 6 11 9 11 11 12 15 16 14 14 11 10 17 23 26 30 32 34 38 43 44 41 41 40 39 38 35 33 32
8 6 7 8 10 10 9 13 10 8 3 3 2 3 4 2 5 11 15 16 18 18 17 17 17 16 12 11 21 23 23 29 33 36 41 46 45 44 42 41 39 34 34 33
6 7 9 8 11 13 8 6 9 7 6 3 6 4 4 4 5 12 16 16 17 18 19 20 21 19 17 14 14 22 22 25 27 32 35 42 46 47 43 40 39 36 33 34
1 3 2 3 2 9 1 5 3 2 4 8 9 7 5 2 5 9 11 13 16 19 20 21 20 19 18 15 11 12 18 20 22 26 29 36 41 46 46 41 39 38 36 36
1 4 4 5 3 3 4 6 4 7 7 10 4 6 3 2 3 5 8 12 16 18 22 23 25 24 25 23 17 8 8 12 15 19 24 29 33 38 45 44 38 32 34 37
3 5 8 9 4 2 3 3 5 5 5 2 2 4 4 4 3 4 7 10 13 17 19 21 24 25 25 24 20 14 9 6 8 13 18 21 27 33 38 40 37 33 31 33
1 3 2 8 11 3 3 2 2 3 1 3 3 3 4 4 3 4 5 7 13 16 17 17 19 22 24 24 23 18 14 10 7 6 14 20 23 29 32 34 35 33 30 21
2 2 4 5 3 8 6 2 2 1 5 9 5 4 3 7 5 5 7 10 13 14 15 14 19 22 18 16 18 19 20 16 13 11 9 9 16 23 25 27 23 23 17 23
3 1 5 4 2 3 3 1 2 1 2 4 6 3 2 2 4 7 7 10 12 12 12 15 19 19 14 14 14 16 18 19 18 16 12 6 2 6 14 20 24 26 24 21
2 3 3 5 4 5 6 7 7 5 5 2 2 3 4 5 6 8 11 16 17 14 14 14 17 18 15 15 16 17 16 15 14 14 15 18 10 5 6 12 21 21 22 24
5 2 2 2 4 3 4 4 3 3 0 14 10 4 4 4 5 9 11 13 15 15 14 13 16 14 11 16 15 12 9 11 12 14 15 13 12 10 6 10 14 17 23 27
2 2 4 5 4 1 3 4 2 2 4 5 6 4 5 2 4 5 8 10 11 14 16 17 16 15 17 17 16 12 11 13 13 14 16 15 14 13 9 6 12 17 16 20
1 4 1 1 1 2 4 7 7 8 7 7 7 9 9 2 2 4 4 7 10 11 14 16 17 18 15 13 14 13 11 14 17 17 15 15 14 14 14 12 4 11 20 23
3 2 2 2 2 4 9 10 9 9 11 11 12 14 1 2 3 6 10 14 16 13 13 16 18 20 19 18 15 15 14 13 15 16 14 12 13 14 13 12 11 3 12 18
1 4 2 4 2 6 10 15 15 8 6 7 8 5 1 1 8 12 16 18 18 15 16 19 21 22 23 20 20 16 14 14 12 12 13 12 13 13 13 13 12 10 7 12
1 3 2 4 3 6 2 0 5 8 5 8 4 2 1 5 12 18 17 16 12 16 24 25 23 23 24 24 21 21 17 17 14 12 12 13 13 13 14 13 13 12 11 11
8 4 3 3 5 9 7 5 5 6 5 6 7 4 2 9 14 20 2 6 17 25 24 24 23 24 24 24 24 24 23 20 19 16 12 13 15 15 16 16 16 16 14 13
6 4 7 3 3 4 1 5 6 4 9 6 6 4 7 7 7 12 11 21 23 23 22 25 26 25 24 23 24 26 25 24 23 19 17 16 16 15 14 16 19 19 18 15
5 4 9 7 4 6 2 9 8 5 2 8 4 7 9 8 12 22 26 26 24 27 28 26 25 26 25 23 21 24 25 26 23 22 21 20 19 17 15 14 16 19 19 18
6 7 4 5 5 7 10 8 5 3 3 6 7 9 10 15 21 24 25 28 30 28 26 25 25 25 23 22 21 22 24 26 24 24 22 20 18 18 16 16 16 17 19 18
3 3 1 6 3 2 11 1 3 5 10 7 7 9 11 18 22 25 27 27 29 27 29 23 21 21 24 23 21 22 23 23 25 24 22 20 18 19 16 16 16 17 18 18
3 3 3 2 2 6 7 10 12 10 12 10 11 14 15 19 21 25 25 27 26 23 20 20 21 22 23 25 24 23 23 21 22 24 21 18 18 19 17 16 15 16 17 17
4 2 3 5 11 10 7 7 6 9 12 14 16 14 16 17 23 21 22 23 21 20 18 18 21 21 21 21 22 21 20 20 20 20 22 17 12 12 16 15 17 15 18 17
5 4 4 3 4 3 6 5 13 15 15 14 15 19 17 19 19 20 23 24 22 21 21 21 21 21 22 24 23 19 15 14 16 16 20 22 22 13 12 16 20 18 16 12
Wind_Direction
185 206 213 208 208 231 200 242 263 255 247 269 263 265 287 289 287 306 344 1 340 320 326 324 311 266 248 251 252 253 245 239 237 229 227 220 214 216 238 235 235 239 237 237
176 229 228 208 179 186 196 219 260 299 216 213 267 283 294 297 61 63 29 2 346 336 320 323 344 302 249 242 252 254 252 247 241 238 234 231 227 233 239 238 239 237 235 234
213 195 186 181 171 188 212 225 236 258 128 237 257 229 318 99 98 62 34 5 350 344 334 327 327 340 298 265 246 252 258 257 250 242 239 236 237 235 239 236 234 233 233 230
229 224 174 183 206 203 231 216 236 248 234 250 256 230 282 112 120 40 16 6 353 347 341 335 327 322 321 285 261 246 251 256 258 252 245 239 236 238 242 238 234 232 231 226
198 195 191 207 228 194 227 194 209 211 221 219 192 242 184 358 127 12 6 6 2 1 356 348 341 334 323 309 269 257 250 250 257 260 252 249 243 244 245 242 238 234 233 230
164 55 45 331 68 194 111 164 121 133 186 242 234 237 182 354 343 359 21 25 23 22 20 16 6 356 348 334 309 262 259 264 264 261 260 255 249 244 243 247 242 237 234 231
176 44 353 14 196 92 201 192 220 218 211 250 132 217 27 27 36 21 12 21 24 29 30 24 23 16 11 356 352 335 285 281 278 274 269 263 258 252 247 248 249 246 241 236
208 164 13 358 25 12 75 259 241 254 231 185 171 206 113 113 111 38 39 30 23 23 22 26 27 27 26 23 6 358 355 309 282 273 272 265 258 255 252 249 249 250 249 243
135 106 319 48 44 344 92 101 355 106 40 247 150 112 179 185 123 83 46 23 16 9 10 17 25 28 29 34 35 24 5 351 325 276 251 249 257 254 250 248 246 247 245 256
129 148 22 7 329 43 67 45 205 104 225 242 191 195 151 166 103 59 45 18 4 360 1 11 15 13 15 25 41 47 47 41 28 6 333 278 256 258 251 245 249 253 246 278
113 299 175 298 36 336 335 248 75 332 245 264 251 155 80 94 354 334 349 342 338 339 340 338 338 346 359 18 34 38 35 33 34 31 19 21 23 272 264 249 248 251 259 258
59 132 210 260 332 278 246 258 232 230 191 213 309 202 72 43 28 5 10 7 353 328 314 320 327 331 327 324 327 337 344 4 12 8 11 18 10 292 258 255 246 241 229 232
173 167 187 204 210 186 216 164 139 119 140 253 254 221 144 63 42 21 15 9 10 11 2 333 309 315 318 335 327 344 6 5 9 6 5 12 21 16 319 257 243 253 220 227
128 152 229 266 337 44 205 180 141 202 229 256 243 280 215 335 18 14 20 21 16 15 11 3 348 305 298 298 307 328 340 342 349 357 360 360 3 15 15 336 268 253 250 240
357 245 252 264 188 236 246 240 238 233 248 253 276 266 288 260 343 4 358 348 340 346 353 356 352 347 335 296 282 298 314 324 328 334 344 356 2 1 2 12 353 256 245 250
7 185 206 241 310 282 270 251 242 243 254 262 262 271 194 130 328 329 338 339 336 328 330 331 332 334 333 330 317 287 292 297 305 312 324 342 353 359 1 2 10 293 244 237
304 164 176 263 5 302 275 250 229 224 211 244 243 292 144 326 341 331 324 322 316 314 318 320 320 318 317 316 320 309 289 289 298 305 310 320 333 343 347 345 341 347 313 263
215 177 197 291 280 245 26 11 211 215 241 224 248 207 80 347 321 307 307 297 302 311 311 312 312 310 308 303 302 303 288 283 285 283 291 304 318 333 342 341 334 325 320 319
216 211 202 243 232 294 257 202 199 214 271 226 229 194 248 332 320 303 304 312 306 305 304 306 308 307 305 299 287 288 286 279 275 275 285 292 301 318 333 339 340 335 321 314
160 230 223 182 240 253 59 159 140 140 270 155 172 185 305 315 295 300 313 306 305 303 302 303 303 304 301 300 293 280 273 274 270 271 273 278 289 302 324 332 334 336 332 328
155 181 212 216 250 279 202 155 150 235 17 158 200 287 285 270 283 295 305 305 305 300 299 301 301 301 297 298 294 285 271 263 265 263 261 264 273 284 302 322 329 325 325 322
183 179 188 194 215 262 147 144 222 67 162 236 269 285 288 293 293 296 299 303 306 303 303 300 300 297 295 297 294 289 281 268 260 260 257 256 258 267 285 304 319 326 323 318
222 239 231 214 230 14 191 272 248 284 287 268 288 302 301 300 305 306 305 302 308 303 301 301 301 300 301 300 294 288 287 279 267 259 254 252 253 251 265 287 306 318 323 319
205 192 238 271 140 240 248 264 272 290 279 263 281 295 301 305 307 307 310 308 307 307 300 299 301 305 303 305 295 287 285 281 273 265 254 254 256 254 255 274 293 311 319 321
281 200 241 264 274 276 272 242 296 307 301 283 290 296 306 307 308 308 314 314 308 303 302 300 301 309 317 319 300 295 284 278 274 267 250 250 270 267 250 268 287 298 310 314
215 228 207 245 3 289 300 276 302 298 300 296 299 304 312 313 303 312 315 318 306 299 299 298 297 297 300 305 309 302 299 283 281 270 264 246 252 291 278 273 282 292 302 311